Theta_e
309 308 309 309 310 310 310 310 310 309 310 310 310 310 311 312 314 317 325 328 330 322 326 328 328 329 332 337 338 340 340 340 339 342 343 344 346 346 343 345 345 345 347 343 339
309 309 309 310 310 310 310 310 310 310 310 310 310 311 312 315 325 326 322 321 323 321 328 331 334 335 340 339 339 341 340 339 339 341 344 345 346 346 345 346 347 346 343 341 335
310 309 308 310 310 310 310 310 310 311 310 311 311 312 315 318 331 328 321 321 322 322 328 329 331 337 338 339 340 340 341 341 344 343 343 345 347 346 345 348 347 348 344 339 332
311 310 309 310 310 311 311 311 311 311 311 311 311 312 320 328 332 329 321 321 320 326 325 327 333 337 337 338 340 343 343 344 345 345 345 347 345 346 346 346 343 344 342 335 329
312 311 309 310 311 311 311 312 312 312 312 312 312 313 323 329 332 323 320 320 321 325 330 333 334 337 336 339 341 344 345 346 345 346 346 345 346 345 344 342 342 342 340 330 328
313 312 310 310 311 312 312 312 313 313 313 313 313 315 329 328 330 326 325 324 327 328 334 335 335 335 337 338 341 341 344 346 345 345 345 346 345 343 342 342 343 340 337 331 326
314 313 311 310 311 312 313 313 314 314 314 314 314 319 328 329 329 326 324 327 326 328 335 334 334 336 338 341 341 343 347 347 347 346 346 344 347 345 341 341 340 338 335 332 329
315 315 311 310 311 313 314 314 315 316 316 315 314 325 329 327 327 326 325 326 325 328 331 333 334 336 339 341 343 344 347 352 348 346 346 345 350 343 339 340 339 338 335 330 326
316 315 311 311 312 313 315 315 317 317 316 315 322 332 330 324 325 326 326 326 326 328 331 332 335 337 339 344 344 344 340 340 349 345 347 347 349 343 340 340 339 338 336 333 332
317 316 312 311 312 314 315 317 320 319 320 323 329 331 327 325 326 326 325 326 328 330 333 334 335 338 341 340 339 334 333 336 336 348 346 343 346 343 340 339 339 338 337 334 333
317 316 313 312 313 314 318 323 329 332 330 326 326 328 328 327 326 325 326 329 331 331 332 333 330 339 339 334 334 334 335 335 341 341 340 341 345 343 341 341 341 339 336 334 332
318 317 314 312 313 315 319 328 325 325 326 326 327 327 328 327 327 327 325 330 330 328 328 327 330 335 332 334 335 335 336 343 340 341 340 343 345 343 341 340 337 336 338 335 332
318 317 314 312 314 317 328 326 323 323 328 325 326 327 327 327 327 327 327 328 328 328 326 327 329 332 332 334 336 335 338 338 335 342 339 340 344 343 339 336 335 334 333 333 332
318 316 313 312 320 326 327 325 322 322 327 325 325 327 328 327 327 328 327 328 326 326 327 328 330 332 333 334 336 335 338 335 334 336 338 344 340 345 340 337 333 331 332 332 331
318 315 312 312 324 326 326 323 322 325 330 326 324 327 327 328 328 327 326 326 325 326 327 328 331 332 332 337 336 335 337 336 335 334 335 341 345 345 338 337 334 332 330 330 331
318 315 312 317 323 325 322 324 327 330 333 328 327 326 326 326 326 327 326 326 326 327 327 329 334 332 333 336 336 337 336 336 336 336 340 342 345 345 339 334 331 330 328 329 328
318 314 312 320 326 322 324 328 331 332 331 328 325 325 325 325 326 326 326 327 327 328 330 330 334 334 334 338 338 338 338 337 334 343 343 342 337 342 334 332 330 329 327 326 325
317 313 318 318 322 321 324 332 335 330 330 329 326 325 326 327 328 329 329 329 330 331 331 333 340 337 334 335 336 336 334 333 334 334 331 338 340 338 333 331 328 328 325 325 324
316 318 322 323 322 324 329 332 332 334 334 333 330 328 326 329 331 330 330 331 334 334 336 336 339 334 333 332 332 330 332 334 334 327 330 341 338 332 329 328 326 326 326 325 324
326 321 322 326 324 329 329 330 336 336 336 336 330 330 330 331 331 333 333 334 333 332 332 336 339 336 334 330 330 332 328 327 329 338 336 338 340 338 332 329 327 326 325 325 324
327 323 326 323 326 328 330 333 336 334 335 336 332 332 332 336 335 334 335 334 330 331 332 333 335 335 332 332 331 327 329 333 333 330 331 329 342 332 331 329 328 325 325 325 324
328 324 325 325 326 329 330 335 328 333 332 335 338 338 338 338 338 337 338 337 330 330 334 332 332 330 329 330 327 327 330 331 333 335 332 330 335 330 328 328 327 326 323 322 321
331 326 324 326 329 329 336 334 332 333 333 332 333 333 333 334 335 333 335 332 331 335 338 336 332 334 333 334 330 330 328 328 329 331 329 332 339 330 328 327 325 325 322 320 315
330 324 326 327 329 337 337 334 333 330 332 333 333 333 334 334 333 334 336 333 331 332 329 333 334 333 333 335 332 329 328 326 328 330 331 330 333 331 329 327 324 323 319 315 315
332 331 331 325 328 335 337 335 335 333 331 332 333 333 334 335 334 334 336 335 332 329 332 334 336 331 329 327 327 327 327 328 329 328 329 329 328 330 327 325 323 319 315 315 315
341 334 327 330 334 337 330 335 332 332 332 333 335 329 329 335 335 335 335 335 336 333 333 332 337 332 331 328 327 328 327 328 328 328 327 327 327 328 326 322 320 316 316 316 315
338 339 334 326 330 336 335 335 334 334 332 331 332 334 336 336 335 338 338 338 334 334 335 335 334 334 334 331 329 332 331 328 329 327 327 328 329 326 323 320 316 316 315 315 315
Wind_Speed
11 9 6 4 3 3 3 3 3 4 5 6 7 7 8 9 5 6 13 5 6 14 13 9 9 9 12 2 4 11 9 7 9 7 12 10 10 2 2 9 9 8 11 23 16
11 9 7 4 4 4 4 4 4 5 6 7 7 7 9 6 6 15 5 2 7 14 14 11 8 12 6 5 2 10 2 15 13 5 14 9 6 6 7 11 9 11 16 20 16
11 9 7 6 5 5 5 4 4 5 7 7 7 8 8 4 11 5 9 7 11 14 10 9 3 14 6 3 5 13 13 11 10 7 6 10 8 3 4 12 5 14 17 19 16
12 9 7 6 5 5 5 5 5 6 6 7 6 7 4 3 4 9 11 10 13 11 10 8 10 14 3 6 5 10 8 11 9 6 5 4 9 9 10 6 8 13 18 19 16
12 10 6 6 5 5 6 5 6 6 5 7 7 7 2 10 4 14 13 12 11 8 11 10 13 5 2 5 9 10 8 10 9 7 7 5 7 9 8 8 10 16 16 14 16
13 11 7 7 6 5 6 6 6 7 6 7 7 6 5 14 8 14 12 13 10 11 9 8 6 7 6 3 5 7 9 11 9 8 7 7 9 7 7 9 11 13 12 12 13
14 12 8 7 6 5 7 8 8 8 7 8 7 4 10 3 9 13 12 10 6 7 8 2 3 7 5 6 6 11 10 10 10 8 6 5 7 5 9 9 9 9 9 10 11
15 12 8 6 6 6 8 10 10 10 9 7 6 3 5 4 10 13 12 7 6 5 6 3 7 2 7 3 7 15 12 7 11 7 6 6 5 8 8 9 10 8 9 10 11
15 12 8 6 6 6 8 11 10 6 6 7 5 9 7 10 13 14 10 8 8 7 5 5 11 10 8 11 4 15 5 2 9 2 2 10 7 9 9 10 12 10 9 9 13
14 11 8 6 6 5 9 6 1 4 4 4 11 8 11 14 15 12 9 7 9 9 9 11 13 12 8 19 4 9 12 6 8 8 7 4 5 7 6 7 6 6 8 10 11
14 11 8 7 6 5 3 3 6 6 14 10 15 18 17 17 14 13 10 11 12 11 14 13 12 8 26 10 10 11 11 8 11 6 11 4 8 8 6 6 6 5 5 6 2
13 11 8 7 7 6 3 8 6 9 12 5 4 7 20 19 13 13 12 12 10 14 6 12 10 1 8 7 9 12 12 12 5 4 5 7 10 6 6 5 2 4 7 8 9
13 10 7 6 7 5 8 1 4 9 9 13 11 11 10 14 14 15 14 15 10 14 12 12 9 3 6 11 8 15 3 13 16 5 12 8 12 8 7 5 3 1 4 7 11
13 9 6 5 4 4 5 1 6 4 6 16 10 9 15 14 15 16 19 16 14 12 12 9 7 6 13 13 10 16 4 10 13 8 7 11 10 9 12 8 4 2 2 6 6
12 8 5 6 9 8 4 5 1 4 6 19 19 12 15 18 14 12 14 16 15 18 5 12 7 8 14 9 9 17 11 13 15 17 10 14 8 9 3 10 5 3 2 6 4
11 6 5 5 6 3 5 3 3 8 3 8 9 10 14 13 15 8 10 14 19 16 13 16 3 5 11 5 6 6 12 15 13 8 14 6 9 10 5 4 8 9 7 7 9
11 5 7 7 1 1 3 7 7 10 7 10 14 17 17 13 18 11 13 13 13 13 16 14 10 3 7 10 8 8 13 13 9 5 8 10 8 8 7 10 9 4 8 8 9
9 5 7 10 5 6 7 9 12 7 8 13 11 13 16 18 14 11 8 13 9 13 15 17 12 13 5 6 11 15 10 9 16 13 10 13 1 7 13 12 7 3 3 8 10
5 4 8 7 7 5 8 11 6 8 3 9 11 11 15 10 7 11 12 10 6 5 12 14 2 6 1 4 5 10 9 9 10 18 13 6 6 9 9 9 2 2 4 6 7
5 9 14 6 5 9 9 13 2 3 5 9 13 12 16 16 10 10 11 2 4 4 5 5 12 5 8 5 10 7 10 9 8 9 11 7 6 7 6 6 3 2 4 11 15
7 6 9 7 5 7 9 5 0 5 4 6 12 6 14 2 8 10 2 7 2 0 4 7 3 2 6 3 9 8 6 2 4 8 9 12 8 5 6 4 4 9 10 8 9
10 5 11 9 8 9 7 0 2 5 1 1 6 7 1 2 4 5 3 7 0 2 3 6 5 9 5 5 3 3 7 7 7 2 9 6 4 6 5 7 10 12 7 5 8
6 2 8 10 8 8 4 4 0 5 4 4 3 5 1 1 3 4 3 4 1 4 4 4 2 8 12 10 4 5 3 5 5 7 10 7 5 5 7 8 6 5 8 10 8
5 5 6 8 8 11 9 8 8 4 7 5 3 2 2 2 3 3 8 3 4 8 2 2 3 8 11 8 5 3 1 3 4 7 11 9 6 9 5 2 2 6 8 8 7
4 1 3 9 9 5 4 10 8 5 4 8 7 3 4 4 3 3 8 7 7 5 1 3 5 6 4 4 4 3 4 5 8 6 6 12 9 10 6 8 5 6 7 8 9
5 4 4 3 1 7 4 8 8 4 5 8 4 0 2 4 6 9 5 8 5 5 2 1 2 6 4 3 5 6 3 3 3 6 8 7 4 5 3 5 6 6 7 9 10
3 3 6 6 7 10 11 11 8 8 5 8 4 3 6 6 6 10 10 7 4 2 3 2 1 6 6 1 6 9 9 5 4 5 5 9 7 5 6 7 6 6 7 10 11
Wind_Direction
343 345 339 325 320 305 306 311 318 303 297 294 293 294 299 295 308 208 212 130 164 155 171 193 207 202 219 149 270 37 358 90 102 97 112 140 137 97 165 110 48 45 61 129 143
344 345 334 318 313 316 317 306 306 301 298 296 293 303 305 304 232 206 128 141 175 170 187 200 183 213 183 148 190 79 314 62 48 53 123 155 104 140 184 131 112 100 109 131 143
349 342 330 313 315 315 304 301 303 296 293 292 300 314 318 164 234 157 136 158 172 177 220 248 256 261 149 24 9 92 79 98 65 60 103 109 112 104 294 90 99 145 141 140 136
345 342 325 304 300 296 288 285 285 277 279 292 307 322 305 233 203 116 129 155 159 192 239 229 234 253 153 86 69 103 53 90 99 91 120 84 102 67 44 57 92 131 147 140 137
341 338 324 294 286 285 279 272 278 274 284 298 309 316 284 219 71 133 134 160 181 229 229 214 226 297 27 85 134 109 97 101 121 115 90 122 56 97 83 81 101 113 120 113 121
339 333 319 291 287 289 285 277 276 276 283 291 302 298 241 242 112 143 151 176 212 230 217 257 17 3 64 29 339 103 142 138 137 127 137 148 140 221 110 120 123 132 139 133 133
339 333 322 295 291 293 286 281 281 279 275 279 282 256 252 37 151 155 168 191 215 261 246 302 334 287 264 130 147 154 153 151 152 154 147 148 143 92 137 138 138 148 141 149 155
340 337 321 296 291 291 290 290 289 277 260 255 242 220 231 131 161 170 184 196 217 227 285 252 254 290 278 124 183 213 107 243 140 167 121 250 104 130 159 149 161 162 157 165 178
340 335 317 294 287 292 300 301 297 270 229 210 199 218 181 144 178 183 199 203 205 221 230 258 253 248 209 187 5 304 185 48 131 144 116 231 106 137 177 184 169 171 184 182 200
338 331 316 297 289 303 309 294 101 135 159 204 268 230 161 179 168 181 206 224 211 211 213 231 232 92 360 290 59 347 346 139 75 121 222 195 90 150 175 198 229 180 187 190 196
335 328 315 301 292 299 297 207 211 193 215 211 173 226 166 132 152 190 193 218 221 214 245 206 271 142 257 17 346 314 315 306 85 156 275 25 142 171 195 236 248 251 239 248 246
331 327 317 299 290 296 232 246 24 341 208 216 116 286 152 162 178 180 193 227 207 250 197 259 252 77 6 338 311 291 293 102 231 136 250 156 160 193 179 218 251 324 188 212 217
328 327 315 297 293 251 239 309 312 333 252 175 190 195 187 187 195 177 201 221 249 254 254 274 296 89 310 291 266 312 243 333 331 130 249 275 192 159 163 217 216 114 301 195 240
324 325 304 287 241 202 199 229 297 285 257 158 196 221 178 201 222 214 193 240 249 256 303 277 8 320 294 283 317 307 338 316 297 275 311 196 292 146 165 165 116 106 157 234 218
320 318 294 254 311 233 37 329 140 192 243 157 189 189 207 208 222 205 220 243 252 277 210 272 301 298 303 2 335 297 331 310 299 290 265 222 285 128 131 96 109 138 272 37 31
315 308 292 246 240 311 321 163 203 221 200 155 146 189 217 220 237 235 205 227 266 286 259 264 26 311 324 319 318 331 276 271 262 277 250 74 202 125 129 107 89 53 33 15 18
307 285 239 241 235 299 306 212 211 250 121 145 176 192 201 193 222 208 206 210 227 226 246 255 271 88 294 264 210 259 273 293 289 186 289 196 256 81 106 79 74 61 29 38 354
298 265 256 222 264 287 256 240 259 211 181 156 188 186 209 197 197 199 228 237 214 281 282 283 195 238 153 292 315 301 315 303 297 306 337 165 100 107 83 84 73 48 353 24 6
286 225 220 211 231 249 259 242 235 177 87 181 208 192 216 179 260 212 238 263 41 306 288 305 57 158 223 313 310 327 275 356 304 268 251 72 62 146 135 111 133 54 25 13 355
258 205 188 186 204 252 260 278 358 35 300 263 199 204 214 203 203 203 198 139 200 283 302 338 295 142 110 277 225 285 333 292 246 285 308 192 165 60 152 128 112 202 348 22 25
242 215 134 184 218 237 237 239 104 60 262 291 249 192 266 156 242 240 212 97 285 32 320 341 253 181 218 210 346 301 280 301 299 285 306 296 99 60 87 87 7 44 29 11 347
269 224 148 177 216 230 242 156 297 99 60 218 331 7 279 353 257 285 285 41 35 295 346 51 313 288 356 53 306 311 335 297 294 53 307 301 82 80 69 65 30 358 58 334 321
253 109 164 208 231 201 134 172 333 142 41 56 111 56 355 97 278 280 118 47 199 28 30 14 282 284 221 175 196 263 35 299 272 280 268 309 106 140 93 65 35 355 329 326 0
275 170 154 212 270 296 167 179 151 88 99 97 60 291 324 321 282 284 119 95 62 84 1 312 286 277 306 9 350 260 258 312 288 286 345 25 100 116 95 49 348 304 326 337 332
249 42 24 197 204 237 218 163 215 156 192 111 255 323 325 287 286 233 131 146 164 171 108 347 277 283 354 328 324 353 303 321 329 341 303 356 333 79 62 338 331 339 333 329 333
314 327 190 102 299 223 160 189 182 112 182 176 234 145 290 303 334 307 191 206 198 171 67 174 271 281 230 245 283 280 259 291 255 319 290 300 309 13 344 284 346 326 325 320 339
5 257 276 122 202 229 178 164 176 130 58 69 102 79 54 18 1 14 32 28 37 176 142 216 61 259 259 70 296 255 214 237 306 262 300 315 37 315 323 2 327 320 332 342 340